Terminal Aerodrome Forecast
Issued by NWS

Current Version | Previous Version | Text Only | Print | Product List | Glossary Off
Versions: 1 2 3 4 5 6 7 8 9 10 11 12 13 14 15 16 17 18 19

000
FTUS41 KILN 191943 AAA
TAFLCK
TAF AMD
KLCK 191943Z 1920/2018 20012G22KT P6SM BKN040
     FM192300 19010KT P6SM BKN040
     FM200600 19010G18KT P6SM BKN025 WS020/22045KT
     FM201500 20014G22KT P6SM BKN035
     FM201700 20018G30KT P6SM BKN040=

USA.gov is the U.S. government's official web portal to all federal, state and local government web resources and services.